SAS588 LEMG-EKCH

Flight info

Callsign SAS588
Flight time N/A
Altitude 34000
Route BLN N865 VTB DCT RBO/N0440F350 DCT OSTIX DCT GASMO DCT DGO/N0438F360 L176 LUSEM DCT LULUT DCT ADABI DCT BOKNO UN858 VANAD UN874 BAMES UT191 PODEM UN873 BAZOS DCT BELDI DCT VEKIN DCT ADUTO DCT VICOT/N0442F370 DCT TALSA P729 TUDLO
Aircraft A320/M-SDE1FGHIJ1RWXYZ/LB1

Departure

Time N/A
Airport Málaga-Costa del Sol Airport (LEMG)

Arrival

Time 2026-04-23 13:57
Airport Copenhagen Kastrup Airport (EKCH)
Time Latitude Longitude Altitude Speed Heading
2026-04-23 13:13 53.33088 6.75380 37235 ft 430 kts 45°
2026-04-23 13:14 53.35257 6.78742 37383 ft 429 kts 45°
2026-04-23 13:14 53.39623 6.85518 37422 ft 427 kts 45°
2026-04-23 13:15 53.43967 6.92300 37421 ft 427 kts 45°
2026-04-23 13:15 53.48307 6.99100 37412 ft 426 kts 45°
2026-04-23 13:16 53.52637 7.05900 37413 ft 426 kts 45°
2026-04-23 13:16 53.56961 7.12699 37414 ft 426 kts 45°
2026-04-23 13:17 53.61285 7.19508 37418 ft 426 kts 45°
2026-04-23 13:17 53.65597 7.26344 37418 ft 425 kts 45°
2026-04-23 13:18 53.69896 7.33180 37418 ft 425 kts 45°
2026-04-23 13:18 53.74203 7.40040 37418 ft 424 kts 45°
2026-04-23 13:19 53.78489 7.46888 37420 ft 424 kts 45°
2026-04-23 13:19 53.82767 7.53756 37418 ft 424 kts 45°
2026-04-23 13:20 53.87044 7.60630 37419 ft 423 kts 45°
2026-04-23 13:20 53.91309 7.67500 37415 ft 422 kts 45°
2026-04-23 13:21 53.95567 7.74370 37410 ft 422 kts 45°
2026-04-23 13:21 53.99794 7.81208 37402 ft 422 kts 45°
2026-04-23 13:22 54.04064 7.88154 37398 ft 422 kts 45°
2026-04-23 13:22 54.08280 7.95041 37392 ft 422 kts 45°
2026-04-23 13:23 54.12515 8.01984 37393 ft 422 kts 45°
2026-04-23 13:23 54.16742 8.08929 37385 ft 422 kts 45°
2026-04-23 13:24 54.20967 8.15882 37380 ft 422 kts 45°
2026-04-23 13:24 54.25188 8.22846 37373 ft 422 kts 45°
2026-04-23 13:25 54.29410 8.29827 37379 ft 421 kts 45°
2026-04-23 13:25 54.33614 8.36816 37367 ft 421 kts 45°
2026-04-23 13:26 54.37832 8.43828 37365 ft 421 kts 45°
2026-04-23 13:26 54.42037 8.50837 37350 ft 422 kts 45°
2026-04-23 13:27 54.46241 8.57871 37343 ft 422 kts 45°
2026-04-23 13:27 54.50446 8.64918 37341 ft 422 kts 45°
2026-04-23 13:28 54.54638 8.71988 37336 ft 422 kts 45°
2026-04-23 13:28 54.58829 8.79063 37331 ft 422 kts 44°
2026-04-23 13:29 54.63015 8.86155 37327 ft 422 kts 44°
2026-04-23 13:29 54.67189 8.93273 37321 ft 422 kts 44°
2026-04-23 13:30 54.71362 9.00396 37319 ft 421 kts 44°
2026-04-23 13:30 54.75523 9.07528 37314 ft 421 kts 44°
2026-04-23 13:31 54.79661 9.14636 37310 ft 421 kts 44°
2026-04-23 13:31 54.83821 9.21798 37306 ft 421 kts 44°
2026-04-23 13:32 54.87973 9.28972 37268 ft 421 kts 44°
2026-04-23 13:32 54.90047 9.32557 36847 ft 419 kts 44°
2026-04-23 13:32 54.92103 9.36118 36545 ft 415 kts 44°
2026-04-23 13:32 54.94153 9.39679 35910 ft 417 kts 44°
2026-04-23 13:33 54.96203 9.43247 35405 ft 415 kts 44°
2026-04-23 13:33 54.98238 9.46797 34971 ft 412 kts 44°
2026-04-23 13:33 55.00256 9.50324 34519 ft 410 kts 44°
2026-04-23 13:33 55.02227 9.53884 34055 ft 408 kts 50°
2026-04-23 13:34 55.03715 9.58088 33557 ft 409 kts 66°
2026-04-23 13:34 55.04711 9.62729 33061 ft 408 kts 68°
2026-04-23 13:34 55.05671 9.67382 32560 ft 407 kts 68°
2026-04-23 13:34 55.06618 9.72027 32056 ft 405 kts 68°
2026-04-23 13:35 55.07557 9.76643 31556 ft 403 kts 68°
2026-04-23 13:35 55.08492 9.81238 31061 ft 401 kts 68°
2026-04-23 13:35 55.09421 9.85811 30555 ft 399 kts 68°
2026-04-23 13:35 55.10344 9.90368 30055 ft 397 kts 68°
2026-04-23 13:36 55.11267 9.94911 29544 ft 395 kts 68°
2026-04-23 13:36 55.12184 9.99428 29042 ft 394 kts 68°
2026-04-23 13:36 55.13094 10.03925 28550 ft 392 kts 68°
2026-04-23 13:36 55.14002 10.08412 28046 ft 391 kts 68°
2026-04-23 13:37 55.14903 10.12886 27546 ft 389 kts 68°
2026-04-23 13:37 55.15799 10.17354 27045 ft 389 kts 68°
2026-04-23 13:37 55.16689 10.21806 26544 ft 388 kts 68°
2026-04-23 13:37 55.17579 10.26256 26043 ft 387 kts 68°
2026-04-23 13:38 55.18166 10.29202 25711 ft 387 kts 68°
2026-04-23 13:38 55.19051 10.33654 25208 ft 386 kts 68°
2026-04-23 13:38 55.19931 10.38093 24707 ft 386 kts 68°
2026-04-23 13:38 55.20807 10.42534 24205 ft 386 kts 68°
2026-04-23 13:39 55.21683 10.46977 23709 ft 386 kts 68°
2026-04-23 13:39 55.22560 10.51427 23204 ft 386 kts 68°
2026-04-23 13:39 55.23435 10.55866 22705 ft 385 kts 68°
2026-04-23 13:39 55.24305 10.60295 22198 ft 384 kts 68°
2026-04-23 13:40 55.25172 10.64711 21701 ft 383 kts 68°
2026-04-23 13:40 55.26033 10.69115 21200 ft 381 kts 68°
2026-04-23 13:40 55.26889 10.73505 20698 ft 380 kts 68°
2026-04-23 13:40 55.27604 10.77959 20197 ft 380 kts 75°
2026-04-23 13:41 55.28112 10.82490 19768 ft 377 kts 75°
2026-04-23 13:41 55.28597 10.86979 19328 ft 372 kts 75°
2026-04-23 13:41 55.29065 10.91414 18915 ft 368 kts 75°
2026-04-23 13:41 55.29524 10.95805 18488 ft 363 kts 75°
2026-04-23 13:42 55.29974 11.00131 18062 ft 358 kts 75°
2026-04-23 13:42 55.30418 11.04414 17635 ft 355 kts 75°
2026-04-23 13:42 55.30856 11.08648 17209 ft 351 kts 75°
2026-04-23 13:42 55.31293 11.12845 16783 ft 347 kts 75°
2026-04-23 13:43 55.31726 11.16990 16358 ft 344 kts 75°
2026-04-23 13:43 55.32160 11.21110 15922 ft 341 kts 75°
2026-04-23 13:43 55.32588 11.25193 15506 ft 339 kts 75°
2026-04-23 13:43 55.33011 11.29252 15079 ft 337 kts 75°
2026-04-23 13:44 55.33427 11.33286 14654 ft 335 kts 75°
2026-04-23 13:44 55.33839 11.37302 14228 ft 333 kts 75°
2026-04-23 13:44 55.34244 11.41296 13799 ft 331 kts 75°
2026-04-23 13:44 55.34647 11.45268 13375 ft 329 kts 75°
2026-04-23 13:45 55.35048 11.49221 12956 ft 328 kts 75°
2026-04-23 13:45 55.35448 11.53157 12527 ft 326 kts 75°
2026-04-23 13:45 55.35846 11.57074 12094 ft 325 kts 76°
2026-04-23 13:45 55.36241 11.60978 11666 ft 324 kts 76°
2026-04-23 13:46 55.36634 11.64882 11239 ft 323 kts 76°
2026-04-23 13:46 55.37022 11.68762 10813 ft 322 kts 76°
2026-04-23 13:46 55.37407 11.72633 10389 ft 320 kts 76°
2026-04-23 13:46 55.37789 11.76481 9960 ft 320 kts 75°
2026-04-23 13:47 55.38171 11.80334 9537 ft 319 kts 76°
2026-04-23 13:47 55.38548 11.84164 9129 ft 317 kts 76°
2026-04-23 13:47 55.38924 11.87975 8717 ft 316 kts 76°
2026-04-23 13:47 55.39293 11.91771 8290 ft 314 kts 76°
2026-04-23 13:48 55.39649 11.95490 7857 ft 302 kts 76°
2026-04-23 13:48 55.39989 11.99063 7440 ft 290 kts 75°
2026-04-23 13:48 55.40319 12.02498 7025 ft 280 kts 75°
2026-04-23 13:48 55.40641 12.05834 6598 ft 273 kts 75°
2026-04-23 13:49 55.40954 12.09089 6172 ft 266 kts 75°
2026-04-23 13:49 55.41259 12.12256 5760 ft 260 kts 75°
2026-04-23 13:49 55.41557 12.15344 5396 ft 252 kts 75°
2026-04-23 13:49 55.41845 12.18338 5024 ft 245 kts 75°
2026-04-23 13:50 55.42124 12.21264 4647 ft 239 kts 75°
2026-04-23 13:50 55.42395 12.24117 4286 ft 235 kts 76°
2026-04-23 13:50 55.42664 12.26929 3926 ft 232 kts 76°
2026-04-23 13:50 55.42931 12.29739 3604 ft 232 kts 76°
2026-04-23 13:51 55.43196 12.32534 3303 ft 231 kts 77°
2026-04-23 13:51 55.43541 12.35251 3085 ft 222 kts 64°
2026-04-23 13:51 55.44329 12.37440 3037 ft 203 kts 42°
2026-04-23 13:51 55.45351 12.39056 3030 ft 194 kts 37°
2026-04-23 13:52 55.46368 12.40609 3032 ft 193 kts 37°
2026-04-23 13:52 55.47379 12.42154 2998 ft 193 kts 37°
2026-04-23 13:52 55.48387 12.43696 2811 ft 192 kts 37°
2026-04-23 13:52 55.49389 12.45230 2579 ft 189 kts 37°
2026-04-23 13:53 55.50374 12.46740 2331 ft 187 kts 38°
2026-04-23 13:53 55.51347 12.48237 2069 ft 184 kts 37°
2026-04-23 13:53 55.52292 12.49689 1821 ft 175 kts 37°
2026-04-23 13:53 55.53185 12.51062 1597 ft 166 kts 36°
2026-04-23 13:54 55.54015 12.52339 1379 ft 154 kts 36°
2026-04-23 13:54 55.54808 12.53558 1198 ft 145 kts 36°
2026-04-23 13:54 55.55546 12.54692 1011 ft 141 kts 36°
2026-04-23 13:54 55.56291 12.55837 812 ft 140 kts 36°
2026-04-23 13:55 55.57012 12.56943 629 ft 138 kts 36°
2026-04-23 13:55 55.57753 12.58068 425 ft 140 kts 37°
2026-04-23 13:55 55.58473 12.59192 265 ft 141 kts 37°
2026-04-23 13:55 55.59222 12.60350 67 ft 140 kts 38°
2026-04-23 13:56 55.59911 12.61408 18 ft 114 kts 41°
2026-04-23 13:56 55.60395 12.62165 17 ft 78 kts 41°
2026-04-23 13:56 55.60765 12.62735 21 ft 67 kts 41°
2026-04-23 13:56 55.61102 12.63255 20 ft 62 kts 41°
2026-04-23 13:57 55.61403 12.63725 18 ft 51 kts 41°
2026-04-23 13:57 55.61605 12.64040 22 ft 21 kts 40°
2026-04-23 13:57 55.61718 12.64083 19 ft 19 kts 356°
2026-04-23 13:57 55.61854 12.64070 17 ft 17 kts
2026-04-23 13:58 55.61969 12.64154 18 ft 19 kts 25°
2026-04-23 13:58 55.62101 12.64264 17 ft 22 kts 25°
2026-04-23 13:58 55.62248 12.64384 16 ft 21 kts 18°
2026-04-23 13:58 55.62367 12.64439 17 ft 17 kts 14°
2026-04-23 13:59 55.62461 12.64482 17 ft 11 kts
2026-04-23 13:59 55.62520 12.64411 18 ft 12 kts 304°
2026-04-23 13:59 55.62569 12.64279 17 ft 10 kts 309°
2026-04-23 13:59 55.62638 12.64293 17 ft 12 kts 26°
2026-04-23 14:00 55.62673 12.64331 18 ft 7 kts 56°
2026-04-23 14:00 55.62671 12.64429 19 ft 2 kts 101°
2026-04-23 14:00 55.62670 12.64440 17 ft 0 kts 101°